Miscellaneous Local Product
Issued by NWS Hastings, NE

Home | Current Version | Previous Version | Graphics & Text | Print | Product List | Glossary On
Versions: 1 2 3 4 5 6 7 8 9 10 11 12 13 14 15 16 17 18 19 20 21 22 23 24 25 26 27 28 29 30 31 32 33 34 35 36 37 38 39 40 41 42 43 44 45 46 47 48 49 50
000
AXUS43 KGID 251302
MISGRI

GID CWA HOURLY WEATHER ROUNDUP
NATIONAL WEATHER SERVICE HASTINGS NE
800 AM CDT MON MAY 25 2015

NOTE: "FAIR" INDICATES FEW OR NO CLOUDS BELOW 12,000 FEET WITH NO
SIGNIFICANT WEATHER AND/OR OBSTRUCTIONS TO VISIBILITY.

...SOUTH CENTRAL NEBRASKA...

CITY           SKY/WX    TMP DP  RH WIND       PRES   REMARKS
GRAND ISLAND   CLOUDY    56  53  90 SW7       29.79R
HASTINGS       CLOUDY    56  52  86 W7        29.80S
KEARNEY        CLOUDY    54  50  87 SW8       29.80R
ORD            PTSUNNY   56  55  97 SW7       29.77R FOG
YORK           CLOUDY    57  55  94 SW6       29.80R
AURORA         CLOUDY    57  56  95 S7        29.79R
LEXINGTON      PTSUNNY   56  55  94 S5        29.80R
HOLDREGE       MOSUNNY   53  51  92 CALM      29.80R
HEBRON         CLOUDY    58  55  89 CALM      29.79R

...NEBRASKA PANHANDLE...

CITY           SKY/WX    TMP DP  RH WIND       PRES   REMARKS
CHADRON        CLOUDY    52  51  97 N12       29.82R
ALLIANCE       CLOUDY    50  49  96 NW9       29.80S
SCOTTSBLUFF    LGT RAIN  50  48  93 W10       29.84R
SIDNEY         LGT RAIN  49  48  97 NW12      29.85R FOG

...WESTERN AND NORTH CENTRAL NEBRASKA...

CITY           SKY/WX    TMP DP  RH WIND       PRES   REMARKS
VALENTINE      FOG       56  55  97 NE7       29.78S VSB 1/2
AINSWORTH      CLOUDY    57  57 100 NE5       29.77S FOG
ONEILL         CLOUDY    58  57  99 CALM      29.77R FOG
BROKEN BOW     PTSUNNY   58  53  84 SW5       29.78R
IMPERIAL       CLOUDY    52  50  93 CALM      29.80R
NORTH PLATTE   CLOUDY    54  52  93 NW5       29.79S
MCCOOK         MOSUNNY   55  53  93 SW5       29.80R

...EASTERN NEBRASKA...

CITY           SKY/WX    TMP DP  RH WIND       PRES   REMARKS
NORFOLK        FOG       57  57 100 SE5       29.77R VSB 1
SO SIOUX CITY  FOG       60  58  92 S3        29.77R VSB 1/4
TEKAMAH        LGT RAIN  64  61  90 S15       29.78R
COLUMBUS       PTSUNNY   61  54  77 SW9       29.81R
ALBION         FOG       58  56  94 CALM      29.77S VSB 1/4
OMAHA EPPLEY   CLOUDY    64  60  87 S13       29.81R
OFFUTT AFB     PTSUNNY   64  60  88 S10       29.80F
MILLARD        CLOUDY    64  60  88 S3        29.81S
LINCOLN        CLOUDY    62  57  83 SE5       29.78F
NEBRASKA CITY  RAIN      61  60  98 SW9       29.83F
BEATRICE       CLOUDY    59  57  94 SW5       29.77R
FALLS CITY     LGT RAIN  61  58  90 SE14      29.80F

...NORTHERN KANSAS...

CITY           SKY/WX    TMP DP  RH WIND       PRES   REMARKS
GOODLAND       SUNNY     51  47  86 W10       29.84R
HILL CITY      MOSUNNY   54  53  97 CALM      29.83R
NORTON         SUNNY     55  54  94 CALM      29.80S
PHILLIPSBURG   PTSUNNY   57  57 100 CALM      29.82R FOG
SMITH CENTER   PTSUNNY   55  54  94 SW3       29.82R
HAYS           CLOUDY    57  48  72 S6        29.83R
RUSSELL        CLOUDY    57  56  96 SE14      29.81R
CONCORDIA      PTSUNNY   59  56  89 S7        29.81R
SALINA         MOSUNNY   60  56  86 S9        29.82S
TOPEKA         RAIN      60  60 100 E26       29.81F FOG



USA.gov is the U.S. government's official web portal to all federal, state and local government web resources and services.